Wahiawa, HI

4:23 AM HST on February 22, 2017 (GMT -1000)
Wheeler Army Air Field

Weather History for PHHI - January, 2013

Change the Weather History Date:

Monday, January 21, 2013

  Actual Average Record
Temperature  
Mean Temperature 68 °F -  
Max Temperature 73 °F 74 °F 78 °F (1998)
Min Temperature 62 °F 61 °F 59 °F (1998)
Cooling Degree Days 4    
Growing Degree Days 18 (Base 50)    
Moisture  
Dew Point 58 °F    
Average Humidity 68    
Maximum Humidity 82    
Minimum Humidity 61    
Precipitation  
Precipitation 0.00 in - - ()
Sea Level Pressure  
Sea Level Pressure 30.07 in    
Wind  
Wind Speed 8 mph (NNE)    
Max Wind Speed 14 mph    
Max Gust Speed 21 mph    
Visibility 10 miles    
Events      
Averages and records for this station are not official NWS values.
T = Trace of Precipitation, MM = Missing Value Source: NWS Daily Summary

Daily Weather History Graph

Daily Weather History Graph

Search for Another Location

Airport or City:

Trip Planner

Search our weather history database for the weather conditions in past years. The results will help you decide how hot, cold, wet, or windy it might be!

Date:

Astronomy

Jan. 21, 2013 Rise Set
Actual Time 7:12 AM HST 6:15 PM HST
Civil Twilight 6:48 AM HST 6:38 PM HST
Nautical Twilight 6:21 AM HST 7:05 PM HST
Astronomical Twilight 5:54 AM HST 7:32 PM HST
Moon 2:06 PM HST (1/21) 2:49 AM HST (1/21)
Length of Visible Light 11h 50m
Length of Day
11h 03m
Waxing Gibbous, 76% of the Moon is Illuminated
Jan 21
Waxing Gibbous
Jan 26
Full
Feb 3
Last Quarter
Feb 9
New
Feb 17
First Quarter

Hourly Weather History & Observations

Time (HST) Temp. Dew Point Humidity Pressure Visibility Wind Dir Wind Speed Gust Speed Precip Events Conditions
12:55 AM 64.0 °F 55.2 °F 73% 30.04 in 10.0 mi NNW 6.9 mph - N/A   Mostly Cloudy
1:25 AM 64.4 °F 55.4 °F 73% 30.04 in 10.0 mi NNW 6.9 mph - N/A   Overcast
1:55 AM 64.8 °F 55.6 °F 72% 30.03 in 10.0 mi NNW 8.1 mph - N/A   Overcast
2:43 AM 64.4 °F 55.4 °F 73% 30.03 in 10.0 mi NNW 8.1 mph - N/A   Mostly Cloudy
2:55 AM 64.6 °F 55.6 °F 73% 30.03 in 10.0 mi NNW 6.9 mph - N/A   Mostly Cloudy
3:33 AM 64.4 °F 55.4 °F 73% 30.03 in 10.0 mi NW 8.1 mph - N/A   Mostly Cloudy
3:55 AM 64.8 °F 55.8 °F 73% 30.03 in 10.0 mi NNW 6.9 mph - N/A   Overcast
4:55 AM 64.8 °F 56.5 °F 74% 30.03 in 10.0 mi NNW 6.9 mph - N/A   Overcast
5:55 AM 65.3 °F 57.0 °F 75% 30.05 in 10.0 mi North 9.2 mph - N/A   Overcast
6:55 AM 65.8 °F 56.5 °F 72% 30.06 in 10.0 mi North 5.8 mph - N/A   Overcast
7:55 AM 66.6 °F 56.7 °F 70% 30.09 in 10.0 mi Variable 6.9 mph - N/A   Overcast
8:41 AM 68.0 °F 57.2 °F 68% 30.10 in 10.0 mi NNE 4.6 mph - N/A   Overcast
8:44 AM 68.0 °F 57.2 °F 68% 30.10 in 10.0 mi NNE 4.6 mph - N/A   Overcast
8:55 AM 68.0 °F 56.8 °F 67% 30.10 in 10.0 mi North 12.7 mph 16.1 mph N/A   Overcast
9:18 AM 68.0 °F 57.2 °F 68% 30.11 in 10.0 mi North 11.5 mph - N/A   Overcast
9:54 AM 69.8 °F 57.2 °F 64% 30.12 in 10.0 mi NE 9.2 mph 17.3 mph N/A   Overcast
9:55 AM 69.4 °F 57.2 °F 65% 30.12 in 10.0 mi ENE 10.4 mph 17.3 mph N/A   Overcast
10:20 AM 69.8 °F 57.2 °F 64% 30.12 in 10.0 mi NNE 8.1 mph - N/A   Mostly Cloudy
10:55 AM 70.7 °F 57.4 °F 63% 30.11 in 10.0 mi NE 10.4 mph - N/A   Mostly Cloudy
11:55 AM 71.8 °F 57.6 °F 61% 30.10 in 10.0 mi ENE 9.2 mph - N/A   Mostly Cloudy
12:49 PM 71.6 °F 59.0 °F 64% 30.08 in 10.0 mi NNE 10.4 mph - N/A   Overcast
12:55 PM 72.1 °F 58.3 °F 62% 30.08 in 10.0 mi NNE 9.2 mph 18.4 mph N/A   Overcast
1:03 PM 73.4 °F 59.0 °F 61% 30.08 in 10.0 mi NE 13.8 mph 20.7 mph N/A   Overcast
1:33 PM 71.6 °F 59.0 °F 64% 30.07 in 10.0 mi ENE 10.4 mph - N/A   Overcast
1:55 PM 72.3 °F 59.9 °F 65% 30.06 in 10.0 mi NE 11.5 mph - N/A   Overcast
2:41 PM 73.4 °F 59.0 °F 61% 30.05 in 10.0 mi NE 13.8 mph - N/A   Mostly Cloudy
2:42 PM 73.4 °F 59.0 °F 61% 30.05 in 10.0 mi NNE 12.7 mph - N/A   Mostly Cloudy
2:55 PM 73.0 °F 59.9 °F 63% 30.06 in 10.0 mi ENE 9.2 mph - N/A   Mostly Cloudy
3:00 PM 73.4 °F 59.0 °F 61% 30.06 in 10.0 mi ENE 8.1 mph - N/A   Scattered Clouds
3:01 PM 73.4 °F 59.0 °F 61% 30.05 in 10.0 mi ENE 8.1 mph - N/A   Mostly Cloudy
3:34 PM 73.4 °F 59.0 °F 61% 30.05 in 10.0 mi NE 13.8 mph - N/A   Scattered Clouds
3:41 PM 73.4 °F 59.0 °F 61% 30.05 in 10.0 mi NE 13.8 mph - N/A   Mostly Cloudy
3:55 PM 73.4 °F 60.3 °F 63% 30.05 in 10.0 mi NE 11.5 mph - N/A   Mostly Cloudy
4:55 PM 71.2 °F 59.4 °F 66% 30.06 in 10.0 mi NE 10.4 mph - N/A   Overcast
5:16 PM 71.6 °F 59.0 °F 64% 30.06 in 10.0 mi NE 8.1 mph - N/A   Mostly Cloudy
5:27 PM 71.6 °F 59.0 °F 64% 30.06 in 10.0 mi NNE 11.5 mph - N/A   Mostly Cloudy
5:55 PM 70.2 °F 60.1 °F 70% 30.07 in 10.0 mi NNE 3.5 mph - N/A   Mostly Cloudy
6:03 PM 69.8 °F 60.8 °F 73% 30.07 in 10.0 mi NNE 8.1 mph - N/A   Mostly Cloudy
6:16 PM 69.8 °F 60.8 °F 73% 30.07 in 10.0 mi NNE 5.8 mph - N/A   Mostly Cloudy
6:55 PM 68.9 °F 59.4 °F 72% 30.08 in 10.0 mi NE 4.6 mph - N/A   Mostly Cloudy
7:07 PM 69.8 °F 59.0 °F 68% 30.08 in 10.0 mi Variable 5.8 mph - N/A   Mostly Cloudy
7:11 PM 69.8 °F 59.0 °F 68% 30.08 in 10.0 mi Variable 3.5 mph - N/A   Mostly Cloudy
7:37 PM 68.0 °F 59.0 °F 73% 30.09 in 10.0 mi Variable 3.5 mph - N/A   Scattered Clouds
7:55 PM 67.6 °F 58.8 °F 73% 30.10 in 10.0 mi Variable 5.8 mph - N/A   Partly Cloudy
8:10 PM 68.0 °F 59.0 °F 73% 30.10 in 10.0 mi Calm Calm - N/A   Mostly Cloudy
8:45 PM 68.0 °F 59.0 °F 73% 30.10 in 10.0 mi NW 4.6 mph - N/A   Scattered Clouds
8:55 PM 67.3 °F 58.5 °F 73% 30.10 in 10.0 mi NW 5.8 mph - N/A   Partly Cloudy
9:55 PM 67.1 °F 58.6 °F 74% 30.12 in 10.0 mi Variable 5.8 mph - N/A   Clear
10:55 PM 66.6 °F 58.6 °F 76% 30.12 in 10.0 mi NE 9.2 mph - N/A   Clear
11:55 PM 62.4 °F 57.0 °F 82% 30.10 in 10.0 mi NNW 4.6 mph - N/A   Clear